Morgantown, WV

6:05 AM EST on February 21, 2017 (GMT -0500)
Morgantown Municipal-Hart

Weather History for KMGW - January, 1998

Change the Weather History Date:

Saturday, January 24, 1998

  Actual Average Record
Temperature  
Mean Temperature 32 °F 31 °F  
Max Temperature 35 °F 39 °F 72 °F (1967)
Min Temperature 30 °F 24 °F -15 °F (1963)
Degree Days  
Heating Degree Days 32 34  
Month to date heating degree days 813  
Since 1 July heating degree days 2797  
Cooling Degree Days 0 0  
Month to date cooling degree days 0  
Year to date cooling degree days 0  
Moisture  
Dew Point 31 °F    
Average Humidity 93    
Maximum Humidity 100    
Minimum Humidity 80    
Precipitation  
Precipitation 0.00 in 0.09 in 0.86 in (1949)
Month to date precipitation 2.17  
Year to date precipitation 2.17  
Sea Level Pressure  
Sea Level Pressure 29.91 in    
Wind  
Wind Speed 4 mph (NW)    
Max Wind Speed 6 mph    
Max Gust Speed -    
Visibility 3 miles    
Events Rain , Snow    
T = Trace of Precipitation, MM = Missing Value Source: NWS Daily Summary

Daily Weather History Graph

Daily Weather History Graph

Search for Another Location

Airport or City:

Trip Planner

Search our weather history database for the weather conditions in past years. The results will help you decide how hot, cold, wet, or windy it might be!

Date:

Astronomy

Jan. 24, 1998 Rise Set
Actual Time 7:33 AM EST 5:30 PM EST
Civil Twilight 7:05 AM EST 5:59 PM EST
Nautical Twilight 6:32 AM EST 6:31 PM EST
Astronomical Twilight 6:00 AM EST 7:03 PM EST
Moon 4:03 AM EST (1/24) 2:20 PM EST (1/24)
Length of Visible Light 10h 54m
Length of Day
9h 56m
Waning Crescent, 15% of the Moon is Illuminated
Jan 24
Waning Crescent
Jan 28
New
Feb 3
First Quarter
Feb 11
Full
Feb 19
Last Quarter

Hourly Weather History & Observations

Time (EST) Temp. Windchill Dew Point Humidity Pressure Visibility Wind Dir Wind Speed Gust Speed Precip Events Conditions
12:50 AM 35.6 °F 32.8 °F 35.6 °F 100% 29.96 in 1.5 mi WNW 3.5 mph - N/A   Drizzle
1:50 AM 35.6 °F 32.8 °F 35.6 °F 100% 29.96 in 1.8 mi NW 3.5 mph - N/A   Overcast
2:47 AM 35.6 °F 32.8 °F 35.6 °F 100% 29.95 in 1.8 mi Variable 3.5 mph - N/A   Overcast
3:00 AM 35.6 °F 32.8 °F 35.6 °F 100% 29.92 in 2.0 mi Variable 3.5 mph - N/A   Overcast
3:47 AM 33.8 °F 29.6 °F 33.8 °F 100% 29.93 in 3.0 mi NW 4.6 mph - N/A   Overcast
4:47 AM 33.8 °F 30.8 °F 33.8 °F 100% 29.93 in 4.0 mi Variable 3.5 mph - N/A   Overcast
5:47 AM 33.8 °F - 32.0 °F 93% 29.91 in 5.0 mi Calm Calm - N/A   Overcast
6:21 AM 33.8 °F 30.8 °F 32.0 °F 93% 29.90 in 3.0 mi NW 3.5 mph - N/A   Mostly Cloudy
6:45 AM 33.8 °F 29.6 °F 32.0 °F 93% 29.57 in 3.0 mi NW 4.6 mph - N/A Rain Light Rain
7:10 AM 33.8 °F 29.6 °F 32.0 °F 93% 29.92 in 1.5 mi NW 4.6 mph - N/A Rain , Snow Light Rain
7:45 AM 33.8 °F 29.6 °F 32.0 °F 93% 29.92 in 1.2 mi NNW 4.6 mph - N/A Rain , Snow Light Rain
8:45 AM 32.0 °F - 30.2 °F 93% 29.93 in 1.2 mi Calm Calm - N/A Snow Light Freezing Drizzle
9:08 AM 32.0 °F - 30.2 °F 93% 29.93 in 2.0 mi Calm Calm - N/A Snow Light Snow Grains
9:30 AM 32.0 °F - 30.2 °F 93% 29.94 in 4.0 mi Calm Calm - N/A   Overcast
9:45 AM 32.0 °F 27.5 °F 30.2 °F 93% 29.93 in 4.0 mi NNW 4.6 mph - N/A   Overcast
10:45 AM 32.0 °F 26.4 °F 30.2 °F 93% 29.93 in 3.0 mi NNW 5.8 mph - N/A Snow Light Snow Grains
11:45 AM 32.0 °F 27.5 °F 28.4 °F 87% 29.92 in 3.0 mi NNW 4.6 mph - N/A Snow Light Snow Grains
12:45 PM 32.0 °F 27.5 °F 28.4 °F 87% 29.90 in 2.5 mi North 4.6 mph - N/A Snow Light Snow Grains
1:45 PM 32.0 °F 27.5 °F 30.2 °F 93% 29.87 in 5.0 mi NNW 4.6 mph - N/A   Overcast
2:45 PM 32.0 °F 28.7 °F 30.2 °F 93% 29.88 in 5.0 mi WNW 3.5 mph - N/A   Overcast
3:45 PM 32.0 °F 27.5 °F 28.4 °F 87% 29.89 in 6.0 mi Variable 4.6 mph - N/A   Overcast
5:45 PM 32.0 °F 27.5 °F 28.4 °F 87% 29.89 in 4.0 mi Variable 4.6 mph - N/A Snow Light Snow Grains
6:45 PM - - - N/A% - 5.0 mi Variable 4.6 mph - N/A Snow Light Snow Grains
7:45 PM 32.0 °F 27.5 °F 26.6 °F 80% 29.93 in 6.0 mi Variable 4.6 mph - N/A   Overcast
8:45 PM 32.0 °F 26.4 °F 26.6 °F 80% 29.95 in 6.0 mi Variable 5.8 mph - N/A Snow Light Snow
9:45 PM 30.2 °F 24.3 °F 28.4 °F 93% 29.95 in 3.0 mi Variable 5.8 mph - N/A Snow Light Snow
10:45 PM 30.2 °F 25.4 °F 30.2 °F 100% 29.96 in 4.0 mi Variable 4.6 mph - N/A Snow Light Snow
11:47 PM 30.2 °F 24.3 °F 28.4 °F 93% 30.02 in 4.0 mi Variable 5.8 mph - N/A Snow Light Snow